Location: Zagreb
(45.8000°N, 16.0000°E)
Time: 08:51:47
(UTC+02:00)

Courier 1B Rocket - Pass Details

Date: 14 August 2022
Orbit: 920 x 1202 km, 28.2° (Epoch: 25 September)

Event Time Altitude Azimuth Distance (km) Brightness Sun altitude
Rises 19:07:18 0° 242° (WSW) 3,557 8.8 9.0°
Reaches altitude 10° 19:11:16 10° 218° (SW) 2,639 7.7 8.3°
Maximum altitude 19:14:21 14° 189° (S) 2,389 7.1 7.8°
Drops below altitude 10° 19:17:29 10° 159° (SSE) 2,704 7.0 7.3°
Sets 19:21:39 0° 136° (SE) 3,710 7.5 6.6°
